Time,TemperatureF,DewpointF,PressureIn,WindDirection,WindDirectionDegrees,WindSpeedMPH,WindSpeedGustMPH,Humidity,HourlyPrecipIn,Conditions,Clouds,dailyrainin,SoftwareType,DateUTC
2013-05-03 00:00:00,37.2,28.3,30.37,North,360,0.0,0.0,70,0.00,,CLR,0.00,VWS V14.01,2013-05-03 05:00:00,
2013-05-03 00:05:00,37.1,28.6,30.37,NNW,341,0.0,0.0,71,0.00,,CLR,0.00,VWS V14.01,2013-05-03 05:05:00,
2013-05-03 00:10:00,37.1,28.6,30.37,NNW,341,0.0,0.0,71,0.00,,CLR,0.00,VWS V14.01,2013-05-03 05:10:00,
2013-05-03 00:16:00,37.0,28.8,30.37,NW,316,0.0,0.0,72,0.00,,CLR,0.00,VWS V14.01,2013-05-03 05:16:00,
2013-05-03 00:21:00,36.8,28.6,30.37,NW,325,0.0,1.0,72,0.00,,CLR,0.00,VWS V14.01,2013-05-03 05:21:00,
2013-05-03 00:26:00,36.6,28.4,30.37,WNW,292,0.0,0.0,72,0.00,,CLR,0.00,VWS V14.01,2013-05-03 05:26:00,
2013-05-03 00:31:00,36.3,28.1,30.38,NW,316,2.0,3.0,72,0.00,,CLR,0.00,VWS V14.01,2013-05-03 05:31:00,
2013-05-03 00:36:00,36.2,28.1,30.38,NW,315,0.0,0.0,72,0.00,,CLR,0.00,VWS V14.01,2013-05-03 05:36:00,
2013-05-03 00:41:00,35.9,28.1,30.37,NW,322,0.0,4.0,73,0.00,,CLR,0.00,VWS V14.01,2013-05-03 05:41:00,
2013-05-03 00:46:00,35.8,28.3,30.37,North,360,0.0,1.0,74,0.00,,CLR,0.00,VWS V14.01,2013-05-03 05:46:00,
2013-05-03 00:51:00,35.6,28.1,30.37,North,360,0.0,0.0,74,0.00,,CLR,0.00,VWS V14.01,2013-05-03 05:51:00,
2013-05-03 00:57:00,35.5,28.4,30.37,North,5,0.0,2.0,75,0.00,,CLR,0.00,VWS V14.01,2013-05-03 05:57:00,
2013-05-03 01:02:00,35.5,28.0,30.37,NW,317,0.0,0.0,74,0.00,,CLR,0.00,VWS V14.01,2013-05-03 06:02:00,
2013-05-03 01:07:00,35.5,28.0,30.37,NNE,27,1.0,1.0,74,0.00,,CLR,0.00,VWS V14.01,2013-05-03 06:07:00,
2013-05-03 01:12:00,35.5,28.4,30.37,NNW,338,0.0,1.0,75,0.00,,CLR,0.00,VWS V14.01,2013-05-03 06:12:00,
2013-05-03 01:17:00,35.6,28.5,30.36,NW,307,0.0,4.0,75,0.00,,CLR,0.00,VWS V14.01,2013-05-03 06:17:00,
2013-05-03 01:22:00,35.7,28.6,30.36,NW,313,0.0,0.0,75,0.00,,CLR,0.00,VWS V14.01,2013-05-03 06:22:00,
2013-05-03 01:28:00,35.7,28.6,30.36,NNW,336,0.0,0.0,75,0.00,,CLR,0.00,VWS V14.01,2013-05-03 06:28:00,
2013-05-03 01:33:00,35.7,28.6,30.36,NNW,336,0.0,0.0,75,0.00,,CLR,0.00,VWS V14.01,2013-05-03 06:33:00,
2013-05-03 01:39:00,35.6,28.5,30.36,NNE,22,0.0,1.0,75,0.00,,CLR,0.00,VWS V14.01,2013-05-03 06:39:00,
2013-05-03 01:44:00,35.6,28.5,30.35,North,355,0.0,0.0,75,0.00,,CLR,0.00,VWS V14.01,2013-05-03 06:44:00,
2013-05-03 01:50:00,35.6,28.1,30.35,North,360,0.0,0.0,74,0.00,,CLR,0.00,VWS V14.01,2013-05-03 06:50:00,
2013-05-03 01:55:00,35.6,28.1,30.35,NNW,327,0.0,3.0,74,0.00,,CLR,0.00,VWS V14.01,2013-05-03 06:55:00,
2013-05-03 02:00:00,35.7,27.9,30.34,NNW,332,0.0,0.0,73,0.00,,CLR,0.00,VWS V14.01,2013-05-03 07:00:00,
2013-05-03 02:06:00,35.7,27.9,30.34,NNE,16,0.0,5.0,73,0.00,,CLR,0.00,VWS V14.01,2013-05-03 07:06:00,
2013-05-03 02:11:00,35.6,27.8,30.34,NNE,19,0.0,1.0,73,0.00,,CLR,0.00,VWS V14.01,2013-05-03 07:11:00,
2013-05-03 02:17:00,35.6,27.8,30.34,North,5,0.0,0.0,73,0.00,,CLR,0.00,VWS V14.01,2013-05-03 07:17:00,
2013-05-03 02:22:00,35.6,27.8,30.34,North,360,0.0,0.0,73,0.00,,CLR,0.00,VWS V14.01,2013-05-03 07:22:00,
2013-05-03 02:27:00,35.6,27.8,30.34,NW,306,0.0,0.0,73,0.00,,CLR,0.00,VWS V14.01,2013-05-03 07:27:00,
2013-05-03 02:32:00,35.5,27.7,30.33,North,5,0.0,0.0,73,0.00,,CLR,0.00,VWS V14.01,2013-05-03 07:32:00,
2013-05-03 02:37:00,35.5,27.7,30.34,NNW,348,0.0,2.0,73,0.00,,CLR,0.00,VWS V14.01,2013-05-03 07:37:00,
2013-05-03 02:43:00,35.4,27.6,30.33,NNW,342,0.0,2.0,73,0.00,,CLR,0.00,VWS V14.01,2013-05-03 07:43:00,
2013-05-03 02:48:00,35.4,27.6,30.34,NNE,30,0.0,0.0,73,0.00,,CLR,0.00,VWS V14.01,2013-05-03 07:48:00,
2013-05-03 02:54:00,35.3,27.5,30.34,NW,317,2.0,5.0,73,0.00,,CLR,0.00,VWS V14.01,2013-05-03 07:54:00,
2013-05-03 02:59:00,35.2,27.4,30.34,NNW,334,0.0,0.0,73,0.00,,CLR,0.00,VWS V14.01,2013-05-03 07:59:00,
2013-05-03 03:04:00,35.2,27.8,30.33,NW,308,1.0,1.0,74,0.00,,CLR,0.00,VWS V14.01,2013-05-03 08:04:00,
2013-05-03 03:09:00,35.1,27.7,30.33,NNE,16,0.0,1.0,74,0.00,,CLR,0.00,VWS V14.01,2013-05-03 08:09:00,
2013-05-03 03:14:00,35.0,27.2,30.33,NNW,330,0.0,0.0,73,0.00,,CLR,0.00,VWS V14.01,2013-05-03 08:14:00,
2013-05-03 03:20:00,35.0,27.2,30.33,NW,317,0.0,0.0,73,0.00,,SCT090,0.00,VWS V14.01,2013-05-03 08:20:00,
2013-05-03 03:25:00,34.9,27.1,30.32,NNE,15,0.0,1.0,73,0.00,,SCT090,0.00,VWS V14.01,2013-05-03 08:25:00,
2013-05-03 03:30:00,34.8,27.4,30.32,NW,313,0.0,0.0,74,0.00,,SCT090,0.00,VWS V14.01,2013-05-03 08:30:00,
2013-05-03 03:35:00,34.7,27.3,30.32,NNE,29,0.0,0.0,74,0.00,,SCT090,0.00,VWS V14.01,2013-05-03 08:35:00,
2013-05-03 03:41:00,34.7,27.3,30.31,North,351,0.0,2.0,74,0.00,,SCT090,0.00,VWS V14.01,2013-05-03 08:41:00,
2013-05-03 03:46:00,34.6,27.2,30.31,NNE,24,1.0,2.0,74,0.00,,SCT090,0.00,VWS V14.01,2013-05-03 08:46:00,
2013-05-03 03:52:00,34.6,27.5,30.31,NW,318,0.0,0.0,75,0.00,,SCT090,0.00,VWS V14.01,2013-05-03 08:52:00,
2013-05-03 03:57:00,34.4,27.0,30.31,NNE,22,0.0,2.0,74,0.00,,SCT090,0.00,VWS V14.01,2013-05-03 08:57:00,
2013-05-03 04:02:00,34.3,27.2,30.31,NNW,348,0.0,2.0,75,0.00,,CLR,0.00,VWS V14.01,2013-05-03 09:02:00,
2013-05-03 04:07:00,34.2,27.1,30.30,NNE,13,0.0,0.0,75,0.00,,CLR,0.00,VWS V14.01,2013-05-03 09:07:00,
2013-05-03 04:12:00,34.1,27.0,30.30,NNW,341,0.0,0.0,75,0.00,,CLR,0.00,VWS V14.01,2013-05-03 09:12:00,
2013-05-03 04:17:00,34.0,26.9,30.31,NW,317,0.0,7.0,75,0.00,,CLR,0.00,VWS V14.01,2013-05-03 09:17:00,
2013-05-03 04:22:00,33.9,27.1,30.31,NNW,342,0.0,0.0,76,0.00,,CLR,0.00,VWS V14.01,2013-05-03 09:22:00,
2013-05-03 04:28:00,33.7,27.0,30.31,NNW,340,0.0,0.0,76,0.00,,CLR,0.00,VWS V14.01,2013-05-03 09:28:00,
2013-05-03 04:33:00,33.6,26.9,30.30,NW,321,0.0,0.0,76,0.00,,CLR,0.00,VWS V14.01,2013-05-03 09:33:00,
2013-05-03 04:38:00,33.5,27.1,30.30,NNW,336,0.0,3.0,77,0.00,,CLR,0.00,VWS V14.01,2013-05-03 09:38:00,
2013-05-03 04:43:00,33.4,27.0,30.29,North,360,0.0,3.0,77,0.00,,CLR,0.00,VWS V14.01,2013-05-03 09:43:00,
2013-05-03 04:48:00,33.4,27.0,30.29,NNW,327,0.0,0.0,77,0.00,,CLR,0.00,VWS V14.01,2013-05-03 09:48:00,
2013-05-03 04:53:00,33.4,27.0,30.29,NE,37,0.0,1.0,77,0.00,,CLR,0.00,VWS V14.01,2013-05-03 09:53:00,
2013-05-03 04:58:00,33.3,27.2,30.29,NNW,333,0.0,1.0,78,0.00,,CLR,0.00,VWS V14.01,2013-05-03 09:58:00,
2013-05-03 05:04:00,33.3,27.2,30.29,NW,321,0.0,2.0,78,0.00,,CLR,0.00,VWS V14.01,2013-05-03 10:04:00,
2013-05-03 05:09:00,33.3,27.2,30.29,NNW,342,3.0,4.0,78,0.00,,CLR,0.00,VWS V14.01,2013-05-03 10:09:00,
2013-05-03 05:14:00,33.2,27.1,30.30,NW,315,1.0,3.0,78,0.00,,CLR,0.00,VWS V14.01,2013-05-03 10:14:00,
2013-05-03 05:20:00,33.0,26.9,30.30,NNW,328,0.0,0.0,78,0.00,,CLR,0.00,VWS V14.01,2013-05-03 10:20:00,
2013-05-03 05:26:00,33.0,26.9,30.29,NNW,337,0.0,0.0,78,0.00,,CLR,0.00,VWS V14.01,2013-05-03 10:26:00,
2013-05-03 05:31:00,33.0,27.2,30.29,NNW,331,0.0,2.0,79,0.00,,CLR,0.00,VWS V14.01,2013-05-03 10:31:00,
2013-05-03 05:37:00,32.9,27.1,30.29,NW,322,0.0,3.0,79,0.00,,CLR,0.00,VWS V14.01,2013-05-03 10:37:00,
2013-05-03 05:42:00,32.8,27.0,30.29,NW,313,0.0,1.0,79,0.00,,SCT034,0.00,VWS V14.01,2013-05-03 10:42:00,
2013-05-03 05:48:00,32.7,27.2,30.29,NW,319,0.0,3.0,80,0.00,,SCT034,0.00,VWS V14.01,2013-05-03 10:48:00,
2013-05-03 05:53:00,32.7,27.2,30.28,NNW,342,0.0,1.0,80,0.00,,SCT034,0.00,VWS V14.01,2013-05-03 10:53:00,
2013-05-03 05:58:00,32.7,27.2,30.28,NW,315,0.0,0.0,80,0.00,,SCT034,0.00,VWS V14.01,2013-05-03 10:58:00,
2013-05-03 06:04:00,32.7,27.2,30.28,NW,325,0.0,0.0,80,0.00,,BKN034,0.00,VWS V14.01,2013-05-03 11:04:00,
2013-05-03 06:09:00,32.6,27.1,30.28,NW,316,0.0,0.0,80,0.00,,BKN034,0.00,VWS V14.01,2013-05-03 11:09:00,
2013-05-03 06:14:00,32.6,27.1,30.28,NW,321,0.0,2.0,80,0.00,,BKN034,0.00,VWS V14.01,2013-05-03 11:14:00,
2013-05-03 06:20:00,32.5,27.0,30.28,NW,322,0.0,0.0,80,0.00,,OVC038,0.00,VWS V14.01,2013-05-03 11:20:00,
2013-05-03 06:25:00,32.6,27.4,30.28,NNW,333,0.0,0.0,81,0.00,,OVC038,0.00,VWS V14.01,2013-05-03 11:25:00,
2013-05-03 06:30:00,32.6,27.1,30.27,NNW,329,0.0,0.0,80,0.00,,OVC038,0.00,VWS V14.01,2013-05-03 11:30:00,
2013-05-03 06:35:00,32.6,27.1,30.27,NNE,30,0.0,3.0,80,0.00,,OVC038,0.00,VWS V14.01,2013-05-03 11:35:00,
2013-05-03 06:40:00,32.7,27.5,30.27,WNW,302,0.0,0.0,81,0.00,,OVC038,0.00,VWS V14.01,2013-05-03 11:40:00,
2013-05-03 06:46:00,32.7,27.5,30.27,North,360,1.0,3.0,81,0.00,,OVC038,0.00,VWS V14.01,2013-05-03 11:46:00,
2013-05-03 06:51:00,32.6,27.4,30.27,NE,39,0.0,0.0,81,0.00,,OVC038,0.00,VWS V14.01,2013-05-03 11:51:00,
2013-05-03 06:56:00,32.5,27.6,30.27,NNW,327,4.0,7.0,82,0.00,,OVC038,0.00,VWS V14.01,2013-05-03 11:56:00,
2013-05-03 07:01:00,32.3,28.0,30.27,North,9,4.0,4.0,84,0.00,,,0.00,VWS V14.01,2013-05-03 12:01:00,
2013-05-03 07:07:00,32.1,28.1,30.27,NNE,26,2.0,2.0,85,0.00,,,0.00,VWS V14.01,2013-05-03 12:07:00,
2013-05-03 07:12:00,31.9,28.5,30.28,NNW,339,0.0,3.0,87,0.00,,,0.00,VWS V14.01,2013-05-03 12:12:00,
2013-05-03 07:17:00,31.7,28.3,30.27,NE,34,0.0,2.0,87,0.00,,,0.00,VWS V14.01,2013-05-03 12:17:00,
2013-05-03 07:22:00,31.6,28.5,30.27,NNW,346,0.0,1.0,88,0.00,,,0.00,VWS V14.01,2013-05-03 12:22:00,
2013-05-03 07:27:00,31.4,28.5,30.27,NNW,328,2.0,2.0,89,0.00,,,0.00,VWS V14.01,2013-05-03 12:27:00,
2013-05-03 07:33:00,31.3,28.7,30.27,NNW,331,0.0,1.0,90,0.00,,,0.00,VWS V14.01,2013-05-03 12:33:00,
2013-05-03 07:38:00,31.3,28.7,30.27,NNW,340,0.0,3.0,90,0.00,,,0.00,VWS V14.01,2013-05-03 12:38:00,
2013-05-03 07:44:00,31.2,28.6,30.27,NNW,345,0.0,0.0,90,0.00,,,0.00,VWS V14.01,2013-05-03 12:44:00,
2013-05-03 07:49:00,31.1,28.5,30.28,NNW,346,0.0,2.0,90,0.00,,,0.00,VWS V14.01,2013-05-03 12:49:00,
2013-05-03 07:54:00,31.1,28.8,30.27,NNW,327,0.0,0.0,91,0.00,,,0.00,VWS V14.01,2013-05-03 12:54:00,
2013-05-03 08:00:00,31.1,28.8,30.27,North,360,0.0,3.0,91,0.00,,,0.00,VWS V14.01,2013-05-03 13:00:00,
2013-05-03 08:06:00,31.1,28.8,30.27,NNE,32,1.0,3.0,91,0.00,,,0.00,VWS V14.01,2013-05-03 13:06:00,
2013-05-03 08:11:00,31.1,29.0,30.27,NNW,337,0.0,2.0,92,0.00,,,0.00,VWS V14.01,2013-05-03 13:11:00,
2013-05-03 08:16:00,31.0,29.0,30.27,NNW,327,0.0,6.0,92,0.00,,,0.00,VWS V14.01,2013-05-03 13:16:00,
2013-05-03 08:21:00,30.9,28.9,30.27,North,5,4.0,4.0,92,0.00,,,0.00,VWS V14.01,2013-05-03 13:21:00,
2013-05-03 08:26:00,30.8,28.8,30.27,NW,325,0.0,0.0,92,0.00,,,0.00,VWS V14.01,2013-05-03 13:26:00,
2013-05-03 08:32:00,30.8,28.8,30.26,NNW,331,0.0,3.0,92,0.00,,,0.00,VWS V14.01,2013-05-03 13:32:00,
2013-05-03 08:37:00,30.8,28.8,30.26,NW,317,0.0,2.0,92,0.00,,,0.00,VWS V14.01,2013-05-03 13:37:00,
2013-05-03 08:42:00,30.7,28.7,30.26,NE,40,2.0,3.0,92,0.00,,,0.00,VWS V14.01,2013-05-03 13:42:00,
2013-05-03 08:48:00,30.7,28.7,30.26,North,355,0.0,0.0,92,0.00,,,0.00,VWS V14.01,2013-05-03 13:48:00,
2013-05-03 08:53:00,30.8,29.0,30.25,NNE,18,1.0,3.0,93,0.00,,,0.00,VWS V14.01,2013-05-03 13:53:00,
2013-05-03 08:58:00,30.8,29.0,30.25,WNW,303,0.0,3.0,93,0.00,,,0.00,VWS V14.01,2013-05-03 13:58:00,
2013-05-03 09:03:00,30.8,29.0,30.25,NNW,341,0.0,0.0,93,0.00,,,0.00,VWS V14.01,2013-05-03 14:03:00,
2013-05-03 09:08:00,30.8,29.0,30.25,North,351,0.0,0.0,93,0.00,,,0.00,VWS V14.01,2013-05-03 14:08:00,
2013-05-03 09:13:00,30.8,29.0,30.25,North,355,1.0,2.0,93,0.00,,,0.00,VWS V14.01,2013-05-03 14:13:00,
2013-05-03 09:18:00,30.8,29.0,30.25,NNE,31,0.0,1.0,93,0.00,,,0.00,VWS V14.01,2013-05-03 14:18:00,
2013-05-03 09:24:00,30.9,29.1,30.25,NNE,15,0.0,0.0,93,0.00,,,0.00,VWS V14.01,2013-05-03 14:24:00,
2013-05-03 09:29:00,31.0,29.2,30.25,North,9,0.0,0.0,93,0.00,,,0.00,VWS V14.01,2013-05-03 14:29:00,
2013-05-03 09:34:00,31.1,29.3,30.25,NNE,20,1.0,2.0,93,0.00,,,0.00,VWS V14.01,2013-05-03 14:34:00,
2013-05-03 09:39:00,31.2,29.4,30.25,North,349,0.0,2.0,93,0.00,,,0.00,VWS V14.01,2013-05-03 14:39:00,
2013-05-03 09:44:00,31.2,29.4,30.25,NNW,337,0.0,0.0,93,0.00,,,0.00,VWS V14.01,2013-05-03 14:44:00,
2013-05-03 09:49:00,31.2,29.4,30.24,NNE,17,0.0,0.0,93,0.00,,,0.00,VWS V14.01,2013-05-03 14:49:00,
2013-05-03 09:54:00,31.2,29.4,30.25,NW,313,0.0,0.0,93,0.00,,,0.00,VWS V14.01,2013-05-03 14:54:00,
2013-05-03 10:00:00,31.4,29.6,30.24,WNW,296,0.0,0.0,93,0.00,,,0.00,VWS V14.01,2013-05-03 15:00:00,
2013-05-03 10:05:00,31.5,29.7,30.24,NW,324,0.0,1.0,93,0.00,,,0.00,VWS V14.01,2013-05-03 15:05:00,
2013-05-03 10:11:00,31.5,29.7,30.24,NW,321,0.0,2.0,93,0.00,,,0.00,VWS V14.01,2013-05-03 15:11:00,
2013-05-03 10:16:00,31.5,29.7,30.24,North,350,0.0,0.0,93,0.00,,,0.00,VWS V14.01,2013-05-03 15:16:00,
2013-05-03 10:21:00,31.6,29.8,30.24,NW,305,0.0,2.0,93,0.00,,,0.00,VWS V14.01,2013-05-03 15:21:00,
2013-05-03 10:26:00,31.6,29.8,30.24,NNW,336,0.0,4.0,93,0.00,,,0.00,VWS V14.01,2013-05-03 15:26:00,
2013-05-03 10:31:00,31.7,29.9,30.24,NNW,328,1.0,1.0,93,0.00,,,0.00,VWS V14.01,2013-05-03 15:31:00,
2013-05-03 10:36:00,31.7,29.6,30.24,NE,34,0.0,0.0,92,0.00,,,0.00,VWS V14.01,2013-05-03 15:36:00,
2013-05-03 10:41:00,31.9,30.1,30.24,WNW,302,0.0,6.0,93,0.00,,,0.00,VWS V14.01,2013-05-03 15:41:00,
2013-05-03 10:46:00,32.0,30.2,30.24,NW,325,0.0,0.0,93,0.00,,,0.00,VWS V14.01,2013-05-03 15:46:00,
2013-05-03 10:51:00,32.2,30.4,30.24,NNW,333,0.0,3.0,93,0.00,,,0.00,VWS V14.01,2013-05-03 15:51:00,
2013-05-03 10:56:00,32.1,30.0,30.24,NNW,347,0.0,1.0,92,0.00,,,0.00,VWS V14.01,2013-05-03 15:56:00,
2013-05-03 11:01:00,32.1,30.0,30.23,NW,317,0.0,0.0,92,0.00,,,0.00,VWS V14.01,2013-05-03 16:01:00,
2013-05-03 11:07:00,32.3,30.2,30.23,NNW,330,0.0,1.0,92,0.00,,,0.00,VWS V14.01,2013-05-03 16:07:00,
2013-05-03 11:12:00,32.4,30.6,30.23,NNE,32,0.0,4.0,93,0.00,,,0.00,VWS V14.01,2013-05-03 16:12:00,
2013-05-03 11:18:00,32.3,30.2,30.23,NW,315,0.0,4.0,92,0.00,,,0.00,VWS V14.01,2013-05-03 16:18:00,
2013-05-03 11:24:00,32.5,30.7,30.22,NW,311,0.0,4.0,93,0.00,,,0.00,VWS V14.01,2013-05-03 16:24:00,
2013-05-03 11:29:00,32.9,31.1,30.22,NW,325,0.0,0.0,93,0.00,,,0.00,VWS V14.01,2013-05-03 16:29:00,
2013-05-03 11:35:00,33.1,31.0,30.22,North,360,0.0,4.0,92,0.00,,,0.00,VWS V14.01,2013-05-03 16:35:00,
2013-05-03 11:40:00,33.1,31.0,30.22,NW,309,4.0,4.0,92,0.00,,OVC014,0.00,VWS V14.01,2013-05-03 16:40:00,
2013-05-03 11:46:00,33.3,31.2,30.22,North,360,1.0,5.0,92,0.00,,OVC014,0.00,VWS V14.01,2013-05-03 16:46:00,
2013-05-03 11:52:00,33.3,31.2,30.22,WNW,297,0.0,4.0,92,0.00,,OVC014,0.00,VWS V14.01,2013-05-03 16:52:00,
2013-05-03 11:57:00,33.1,31.0,30.21,NNW,348,0.0,4.0,92,0.00,,OVC014,0.00,VWS V14.01,2013-05-03 16:57:00,
2013-05-03 12:02:00,33.0,30.9,30.21,NE,42,6.0,6.0,92,0.01,,,0.01,VWS V14.01,2013-05-03 17:02:00,
2013-05-03 12:07:00,33.0,30.9,30.20,NNW,328,0.0,3.0,92,0.01,,,0.01,VWS V14.01,2013-05-03 17:07:00,
2013-05-03 12:12:00,32.9,30.8,30.20,NNE,19,0.0,4.0,92,0.02,,,0.02,VWS V14.01,2013-05-03 17:12:00,
2013-05-03 12:17:00,33.0,30.9,30.20,NW,321,1.0,4.0,92,0.03,,,0.03,VWS V14.01,2013-05-03 17:17:00,
2013-05-03 12:22:00,33.0,30.9,30.20,NNW,328,0.0,3.0,92,0.03,,,0.03,VWS V14.01,2013-05-03 17:22:00,
2013-05-03 12:28:00,33.0,30.9,30.19,North,355,0.0,4.0,92,0.04,,,0.04,VWS V14.01,2013-05-03 17:28:00,
2013-05-03 12:33:00,33.2,31.4,30.19,North,5,0.0,4.0,93,0.04,,,0.04,VWS V14.01,2013-05-03 17:33:00,
2013-05-03 12:38:00,33.4,31.3,30.19,NNW,347,0.0,5.0,92,0.05,,,0.05,VWS V14.01,2013-05-03 17:38:00,
2013-05-03 12:43:00,33.5,31.4,30.19,NW,324,0.0,4.0,92,0.06,,,0.06,VWS V14.01,2013-05-03 17:43:00,
2013-05-03 12:48:00,33.5,31.4,30.19,West,280,5.0,5.0,92,0.06,,,0.06,VWS V14.01,2013-05-03 17:48:00,
2013-05-03 12:53:00,33.5,31.4,30.19,NW,325,2.0,9.0,92,0.07,,,0.07,VWS V14.01,2013-05-03 17:53:00,
2013-05-03 12:59:00,33.5,31.4,30.18,North,350,3.0,3.0,92,0.08,,,0.08,VWS V14.01,2013-05-03 17:59:00,
2013-05-03 13:04:00,33.5,31.4,30.18,NNE,27,0.0,4.0,92,0.07,,,0.08,VWS V14.01,2013-05-03 18:04:00,
2013-05-03 13:10:00,33.5,31.4,30.17,NNW,334,2.0,5.0,92,0.07,,,0.09,VWS V14.01,2013-05-03 18:10:00,
2013-05-03 13:15:00,33.5,31.4,30.17,NNE,30,2.0,2.0,92,0.07,,,0.09,VWS V14.01,2013-05-03 18:15:00,
2013-05-03 13:20:00,33.6,31.5,30.17,NNE,30,0.0,2.0,92,0.06,,,0.09,VWS V14.01,2013-05-03 18:20:00,
2013-05-03 13:25:00,33.6,31.8,30.17,North,360,0.0,0.0,93,0.06,,,0.10,VWS V14.01,2013-05-03 18:25:00,
2013-05-03 13:30:00,33.7,31.9,30.17,North,355,0.0,1.0,93,0.06,,,0.10,VWS V14.01,2013-05-03 18:30:00,
2013-05-03 13:36:00,33.7,31.9,30.17,NNE,17,0.0,5.0,93,0.05,,,0.10,VWS V14.01,2013-05-03 18:36:00,
2013-05-03 13:41:00,33.6,31.8,30.17,NNW,332,0.0,4.0,93,0.05,,,0.11,VWS V14.01,2013-05-03 18:41:00,
2013-05-03 13:46:00,33.7,31.9,30.17,North,5,0.0,0.0,93,0.05,,,0.11,VWS V14.01,2013-05-03 18:46:00,
2013-05-03 13:52:00,33.7,31.9,30.17,NNW,345,0.0,5.0,93,0.04,,,0.11,VWS V14.01,2013-05-03 18:52:00,
2013-05-03 13:57:00,33.8,32.0,30.17,North,350,0.0,5.0,93,0.05,,,0.12,VWS V14.01,2013-05-03 18:57:00,
2013-05-03 14:03:00,33.7,31.9,30.16,NNE,27,2.0,7.0,93,0.04,,OVC019,0.12,VWS V14.01,2013-05-03 19:03:00,
2013-05-03 14:08:00,33.8,32.0,30.16,North,360,0.0,4.0,93,0.04,,OVC019,0.12,VWS V14.01,2013-05-03 19:08:00,
2013-05-03 14:13:00,33.8,32.0,30.16,NNE,18,1.0,2.0,93,0.04,,OVC019,0.13,VWS V14.01,2013-05-03 19:13:00,
2013-05-03 14:18:00,33.9,32.1,30.16,NNE,15,1.0,4.0,93,0.04,,OVC019,0.13,VWS V14.01,2013-05-03 19:18:00,
2013-05-03 14:23:00,33.9,32.1,30.16,NNE,23,4.0,4.0,93,0.03,,OVC019,0.13,VWS V14.01,2013-05-03 19:23:00,
2013-05-03 14:28:00,33.9,32.1,30.16,NNW,343,0.0,5.0,93,0.03,,OVC019,0.13,VWS V14.01,2013-05-03 19:28:00,
2013-05-03 14:35:00,33.9,32.1,30.16,NE,43,0.0,2.0,93,0.04,,OVC019,0.14,VWS V14.01,2013-05-03 19:35:00,
2013-05-03 14:40:00,33.9,32.1,30.16,NNE,19,0.0,4.0,93,0.03,,-RA,0.14,VWS V14.01,2013-05-03 19:40:00,
2013-05-03 14:46:00,33.9,32.1,30.16,NNE,29,3.0,3.0,93,0.03,,-RA,0.14,VWS V14.01,2013-05-03 19:46:00,
2013-05-03 14:52:00,34.0,32.2,30.16,NNE,26,0.0,1.0,93,0.04,,-RA,0.15,VWS V14.01,2013-05-03 19:52:00,
2013-05-03 14:57:00,34.1,32.3,30.15,North,350,1.0,4.0,93,0.03,,-RA,0.15,VWS V14.01,2013-05-03 19:57:00,
2013-05-03 15:02:00,34.1,32.3,30.15,NW,315,4.0,4.0,93,0.03,,-RA,0.15,VWS V14.01,2013-05-03 20:02:00,
2013-05-03 15:08:00,34.3,32.5,30.15,North,355,2.0,2.0,93,0.04,,-RA,0.16,VWS V14.01,2013-05-03 20:08:00,
2013-05-03 15:13:00,34.3,32.5,30.15,NNE,23,2.0,4.0,93,0.03,,-RA,0.16,VWS V14.01,2013-05-03 20:13:00,
2013-05-03 15:18:00,34.3,32.5,30.15,North,5,0.0,0.0,93,0.03,,-RA,0.16,VWS V14.01,2013-05-03 20:18:00,
2013-05-03 15:23:00,34.2,32.4,30.15,NNE,14,3.0,3.0,93,0.04,,-RA,0.17,VWS V14.01,2013-05-03 20:23:00,
2013-05-03 15:28:00,34.1,32.3,30.15,NNE,20,0.0,4.0,93,0.04,,-RA,0.17,VWS V14.01,2013-05-03 20:28:00,
2013-05-03 15:33:00,34.1,32.3,30.15,North,360,0.0,0.0,93,0.03,,-RA,0.17,VWS V14.01,2013-05-03 20:33:00,
2013-05-03 15:39:00,34.2,32.4,30.15,NNE,13,0.0,3.0,93,0.03,,-RA,0.17,VWS V14.01,2013-05-03 20:39:00,
2013-05-03 15:44:00,34.2,32.4,30.15,NE,42,0.0,2.0,93,0.04,,-RA,0.18,VWS V14.01,2013-05-03 20:44:00,
2013-05-03 15:49:00,34.2,32.7,30.15,NNE,30,0.0,0.0,94,0.04,,-RA,0.18,VWS V14.01,2013-05-03 20:49:00,
2013-05-03 15:55:00,34.3,32.8,30.14,NE,36,0.0,0.0,94,0.03,,-RA,0.18,VWS V14.01,2013-05-03 20:55:00,
2013-05-03 16:01:00,34.3,32.8,30.14,NNE,22,1.0,1.0,94,0.04,,-RA,0.19,VWS V14.01,2013-05-03 21:01:00,
2013-05-03 16:06:00,34.3,32.8,30.14,NNW,333,0.0,1.0,94,0.04,,-RA,0.19,VWS V14.01,2013-05-03 21:06:00,
2013-05-03 16:11:00,34.2,32.7,30.13,NNE,20,0.0,4.0,94,0.03,,-RA,0.19,VWS V14.01,2013-05-03 21:11:00,
2013-05-03 16:16:00,34.3,32.8,30.13,NNE,28,2.0,3.0,94,0.03,,-RA,0.19,VWS V14.01,2013-05-03 21:16:00,
2013-05-03 16:21:00,34.4,32.9,30.13,NNE,32,2.0,9.0,94,0.02,,OVC025,0.19,VWS V14.01,2013-05-03 21:21:00,
2013-05-03 16:26:00,34.4,32.9,30.13,North,9,0.0,0.0,94,0.03,,OVC025,0.20,VWS V14.01,2013-05-03 21:26:00,
2013-05-03 16:31:00,34.4,32.9,30.13,North,9,0.0,0.0,94,0.03,,OVC025,0.20,VWS V14.01,2013-05-03 21:31:00,
2013-05-03 16:37:00,34.4,32.9,30.14,NW,324,0.0,4.0,94,0.03,,OVC025,0.20,VWS V14.01,2013-05-03 21:37:00,
2013-05-03 16:42:00,34.3,32.8,30.13,NNE,19,0.0,3.0,94,0.02,,OVC022,0.20,VWS V14.01,2013-05-03 21:42:00,
2013-05-03 16:47:00,34.2,32.7,30.13,North,360,0.0,1.0,94,0.02,,OVC022,0.20,VWS V14.01,2013-05-03 21:47:00,
2013-05-03 16:52:00,34.1,32.3,30.13,North,5,0.0,7.0,93,0.02,,OVC022,0.20,VWS V14.01,2013-05-03 21:52:00,
2013-05-03 16:58:00,34.1,32.3,30.13,NNE,26,5.0,5.0,93,0.02,,OVC022,0.20,VWS V14.01,2013-05-03 21:58:00,
2013-05-03 17:03:00,34.1,32.3,30.13,NW,321,0.0,5.0,93,0.02,,OVC015,0.21,VWS V14.01,2013-05-03 22:03:00,
2013-05-03 17:08:00,34.0,32.2,30.14,NNE,32,2.0,2.0,93,0.02,,OVC015,0.21,VWS V14.01,2013-05-03 22:08:00,
2013-05-03 17:14:00,34.0,32.2,30.14,NNE,21,2.0,5.0,93,0.02,,OVC015,0.21,VWS V14.01,2013-05-03 22:14:00,
2013-05-03 17:19:00,34.0,32.2,30.14,NNE,28,3.0,7.0,93,0.02,,OVC015,0.21,VWS V14.01,2013-05-03 22:19:00,
2013-05-03 17:24:00,33.9,32.1,30.14,NNE,17,2.0,2.0,93,0.01,,OVC021,0.21,VWS V14.01,2013-05-03 22:24:00,
2013-05-03 17:29:00,33.9,32.1,30.15,NNE,26,0.0,0.0,93,0.01,,OVC021,0.21,VWS V14.01,2013-05-03 22:29:00,
2013-05-03 17:35:00,33.9,32.1,30.15,NNE,15,2.0,3.0,93,0.01,,OVC021,0.21,VWS V14.01,2013-05-03 22:35:00,
2013-05-03 17:40:00,33.8,32.0,30.15,North,11,0.0,0.0,93,0.02,,-RA,0.22,VWS V14.01,2013-05-03 22:40:00,
2013-05-03 17:45:00,33.7,31.9,30.15,North,5,3.0,3.0,93,0.02,,-RA,0.22,VWS V14.01,2013-05-03 22:45:00,
2013-05-03 17:50:00,33.7,31.9,30.15,NNE,12,0.0,1.0,93,0.03,,-RA,0.23,VWS V14.01,2013-05-03 22:50:00,
2013-05-03 17:55:00,33.6,31.8,30.14,NNE,30,0.0,1.0,93,0.03,,-RA,0.23,VWS V14.01,2013-05-03 22:55:00,
2013-05-03 18:00:00,33.5,31.7,30.14,NNE,30,0.0,3.0,93,0.03,,-RA,0.23,VWS V14.01,2013-05-03 23:00:00,
2013-05-03 18:06:00,33.5,31.7,30.14,NNE,28,0.0,4.0,93,0.02,,-RA,0.23,VWS V14.01,2013-05-03 23:06:00,
2013-05-03 18:11:00,33.5,32.0,30.14,NNW,345,0.0,1.0,94,0.03,,-RA,0.24,VWS V14.01,2013-05-03 23:11:00,
2013-05-03 18:16:00,33.6,32.1,30.14,NNE,22,3.0,5.0,94,0.03,,-RA,0.24,VWS V14.01,2013-05-03 23:16:00,
2013-05-03 18:22:00,33.4,31.6,30.15,NNE,22,0.0,2.0,93,0.03,,-RA,0.24,VWS V14.01,2013-05-03 23:22:00,
2013-05-03 18:27:00,33.4,31.9,30.15,NNE,13,0.0,1.0,94,0.03,,-RA,0.24,VWS V14.01,2013-05-03 23:27:00,
2013-05-03 18:32:00,33.4,31.9,30.15,NNW,345,0.0,4.0,94,0.03,,-RA,0.24,VWS V14.01,2013-05-03 23:32:00,
2013-05-03 18:38:00,33.2,31.7,30.14,NE,42,3.0,4.0,94,0.03,,-RA,0.24,VWS V14.01,2013-05-03 23:38:00,
2013-05-03 18:44:00,33.2,31.7,30.14,NW,323,0.0,3.0,94,0.02,,,0.24,VWS V14.01,2013-05-03 23:44:00,
2013-05-03 18:50:00,33.2,31.7,30.14,NNE,24,2.0,6.0,94,0.03,,,0.25,VWS V14.01,2013-05-03 23:50:00,
2013-05-03 18:55:00,33.1,31.6,30.14,NNE,23,2.0,2.0,94,0.02,,,0.25,VWS V14.01,2013-05-03 23:55:00,
2013-05-03 19:00:00,33.0,31.5,30.13,NNE,28,2.0,3.0,94,0.02,,OVC023,0.25,VWS V14.01,2013-05-04 00:00:00,
2013-05-03 19:05:00,33.0,31.5,30.13,NNW,338,1.0,2.0,94,0.02,,OVC023,0.25,VWS V14.01,2013-05-04 00:05:00,
2013-05-03 19:10:00,33.0,31.5,30.13,NNW,344,1.0,1.0,94,0.02,,OVC023,0.25,VWS V14.01,2013-05-04 00:10:00,
2013-05-03 19:15:00,33.0,31.5,30.13,NNE,26,0.0,0.0,94,0.01,,OVC023,0.25,VWS V14.01,2013-05-04 00:15:00,
2013-05-03 19:20:00,33.0,31.5,30.13,North,360,3.0,4.0,94,0.01,,-RA,0.25,VWS V14.01,2013-05-04 00:20:00,
2013-05-03 19:26:00,33.0,31.5,30.13,NNE,28,1.0,3.0,94,0.01,,-RA,0.25,VWS V14.01,2013-05-04 00:26:00,
2013-05-03 19:31:00,32.9,31.4,30.13,NW,323,0.0,7.0,94,0.02,,-RA,0.26,VWS V14.01,2013-05-04 00:31:00,
2013-05-03 19:36:00,32.8,31.3,30.13,NE,40,0.0,4.0,94,0.02,,-RA,0.26,VWS V14.01,2013-05-04 00:36:00,
2013-05-03 19:41:00,32.8,31.3,30.14,NE,40,4.0,4.0,94,0.02,,OVC016,0.26,VWS V14.01,2013-05-04 00:41:00,
2013-05-03 19:46:00,32.7,31.2,30.14,NE,40,4.0,4.0,94,0.01,,OVC016,0.26,VWS V14.01,2013-05-04 00:46:00,
2013-05-03 19:51:00,32.7,31.2,30.13,NNE,12,0.0,3.0,94,0.01,,OVC016,0.26,VWS V14.01,2013-05-04 00:51:00,
2013-05-03 19:56:00,32.7,31.2,30.13,NNE,16,0.0,2.0,94,0.01,,OVC016,0.26,VWS V14.01,2013-05-04 00:56:00,
2013-05-03 20:01:00,32.8,31.3,30.13,North,360,1.0,3.0,94,0.01,,OVC016,0.26,VWS V14.01,2013-05-04 01:01:00,
2013-05-03 20:06:00,32.8,31.3,30.13,NNE,30,0.0,1.0,94,0.01,,OVC016,0.26,VWS V14.01,2013-05-04 01:06:00,
2013-05-03 20:11:00,32.8,31.3,30.13,NNW,340,1.0,1.0,94,0.01,,OVC016,0.26,VWS V14.01,2013-05-04 01:11:00,
2013-05-03 20:17:00,32.8,31.3,30.13,NNE,28,2.0,2.0,94,0.01,,OVC016,0.26,VWS V14.01,2013-05-04 01:17:00,
2013-05-03 20:22:00,32.8,31.3,30.12,North,360,0.0,0.0,94,0.01,,OVC014,0.26,VWS V14.01,2013-05-04 01:22:00,
2013-05-03 20:27:00,32.8,31.3,30.12,NNE,30,0.0,2.0,94,0.01,,OVC014,0.26,VWS V14.01,2013-05-04 01:27:00,
2013-05-03 20:32:00,32.7,31.2,30.12,NNE,18,0.0,3.0,94,0.00,,OVC014,0.26,VWS V14.01,2013-05-04 01:32:00,
2013-05-03 20:38:00,32.6,31.1,30.12,North,5,2.0,5.0,94,0.00,,OVC014,0.26,VWS V14.01,2013-05-04 01:38:00,
2013-05-03 20:43:00,32.6,31.1,30.13,NNE,19,0.0,1.0,94,0.00,,OVC023,0.26,VWS V14.01,2013-05-04 01:43:00,
2013-05-03 20:48:00,32.5,31.0,30.12,NNE,24,3.0,3.0,94,0.00,,OVC023,0.26,VWS V14.01,2013-05-04 01:48:00,
2013-05-03 20:53:00,32.6,31.1,30.12,NNW,342,0.0,1.0,94,0.00,,OVC023,0.26,VWS V14.01,2013-05-04 01:53:00,
2013-05-03 20:59:00,32.6,31.1,30.12,NNE,22,1.0,3.0,94,0.00,,OVC023,0.26,VWS V14.01,2013-05-04 01:59:00,
2013-05-03 21:04:00,32.5,31.0,30.13,NNE,23,0.0,3.0,94,0.01,,OVC015,0.27,VWS V14.01,2013-05-04 02:04:00,
2013-05-03 21:10:00,32.5,31.0,30.13,North,350,0.0,3.0,94,0.01,,OVC015,0.27,VWS V14.01,2013-05-04 02:10:00,
2013-05-03 21:15:00,32.5,31.0,30.13,NNE,20,0.0,1.0,94,0.01,,OVC015,0.27,VWS V14.01,2013-05-04 02:15:00,
2013-05-03 21:20:00,32.6,31.1,30.14,North,360,3.0,3.0,94,0.01,,OVC015,0.27,VWS V14.01,2013-05-04 02:20:00,
2013-05-03 21:25:00,32.5,31.0,30.14,NNE,33,0.0,0.0,94,0.01,,OVC015,0.27,VWS V14.01,2013-05-04 02:25:00,
2013-05-03 21:30:00,32.4,30.9,30.14,NE,42,0.0,2.0,94,0.01,,OVC015,0.27,VWS V14.01,2013-05-04 02:30:00,
2013-05-03 21:35:00,32.4,30.9,30.14,NNE,29,0.0,2.0,94,0.01,,OVC015,0.27,VWS V14.01,2013-05-04 02:35:00,
2013-05-03 21:41:00,32.4,30.9,30.14,NE,44,4.0,4.0,94,0.01,,OVC015,0.27,VWS V14.01,2013-05-04 02:41:00,
2013-05-03 21:46:00,32.4,30.9,30.14,NNE,33,0.0,2.0,94,0.01,,OVC015,0.27,VWS V14.01,2013-05-04 02:46:00,
2013-05-03 21:51:00,32.4,30.9,30.14,NNE,17,0.0,0.0,94,0.01,,OVC015,0.27,VWS V14.01,2013-05-04 02:51:00,
2013-05-03 21:56:00,32.4,30.9,30.15,NNE,17,0.0,0.0,94,0.01,,OVC015,0.27,VWS V14.01,2013-05-04 02:56:00,
2013-05-03 22:01:00,32.4,30.9,30.15,NNE,19,0.0,0.0,94,0.01,,OVC015,0.27,VWS V14.01,2013-05-04 03:01:00,
2013-05-03 22:06:00,32.4,30.9,30.14,NNE,28,0.0,2.0,94,0.00,,OVC015,0.27,VWS V14.01,2013-05-04 03:06:00,
2013-05-03 22:11:00,32.3,30.8,30.14,NNE,12,0.0,3.0,94,0.00,,OVC015,0.27,VWS V14.01,2013-05-04 03:11:00,
2013-05-03 22:16:00,32.3,30.8,30.14,NNE,21,0.0,4.0,94,0.00,,OVC015,0.27,VWS V14.01,2013-05-04 03:16:00,
2013-05-03 22:21:00,32.3,30.8,30.14,NNE,26,0.0,0.0,94,0.00,,OVC013,0.27,VWS V14.01,2013-05-04 03:21:00,
2013-05-03 22:26:00,32.3,30.8,30.14,North,5,0.0,1.0,94,0.00,,OVC013,0.27,VWS V14.01,2013-05-04 03:26:00,
2013-05-03 22:31:00,32.3,30.8,30.14,NE,39,0.0,2.0,94,0.00,,OVC013,0.27,VWS V14.01,2013-05-04 03:31:00,
2013-05-03 22:36:00,32.3,30.8,30.14,North,355,0.0,1.0,94,0.00,,OVC013,0.27,VWS V14.01,2013-05-04 03:36:00,
2013-05-03 22:41:00,32.3,30.8,30.14,North,355,0.0,2.0,94,0.00,,OVC013,0.27,VWS V14.01,2013-05-04 03:41:00,
2013-05-03 22:47:00,32.3,30.8,30.14,NNW,346,0.0,2.0,94,0.00,,OVC013,0.27,VWS V14.01,2013-05-04 03:47:00,
2013-05-03 22:53:00,32.3,30.8,30.14,NNE,32,0.0,0.0,94,0.00,,OVC013,0.27,VWS V14.01,2013-05-04 03:53:00,
2013-05-03 22:59:00,32.3,30.8,30.13,NNE,20,0.0,3.0,94,0.00,,OVC013,0.27,VWS V14.01,2013-05-04 03:59:00,
2013-05-03 23:01:00,32.4,30.9,30.14,NNE,20,0.0,0.0,94,0.00,,OVC013,0.27,VWS V14.01,2013-05-04 04:01:00,
2013-05-03 23:02:00,32.4,30.9,30.13,NNE,20,0.0,1.0,94,0.00,,OVC013,0.27,VWS V14.01,2013-05-04 04:02:00,
2013-05-03 23:05:00,32.4,30.9,30.13,NNW,335,0.0,0.0,94,0.00,,OVC013,0.27,VWS V14.01,2013-05-04 04:05:00,
2013-05-03 23:06:00,32.4,30.9,30.13,NNE,19,0.0,3.0,94,0.00,,OVC013,0.27,VWS V14.01,2013-05-04 04:06:00,
2013-05-03 23:08:00,32.4,30.9,30.13,NNE,19,0.0,1.0,94,0.00,,OVC013,0.27,VWS V14.01,2013-05-04 04:08:00,
2013-05-03 23:13:00,32.4,30.9,30.13,NE,43,0.0,2.0,94,0.00,,OVC013,0.27,VWS V14.01,2013-05-04 04:13:00,
2013-05-03 23:18:00,32.3,30.8,30.12,North,350,0.0,1.0,94,0.00,,OVC013,0.27,VWS V14.01,2013-05-04 04:18:00,
2013-05-03 23:23:00,32.3,30.8,30.12,NNW,344,0.0,3.0,94,0.00,,OVC013,0.27,VWS V14.01,2013-05-04 04:23:00,
2013-05-03 23:29:00,32.3,30.8,30.12,NNE,27,0.0,2.0,94,0.00,,OVC013,0.27,VWS V14.01,2013-05-04 04:29:00,
2013-05-03 23:35:00,32.3,30.8,30.12,NNE,26,0.0,0.0,94,0.00,,OVC013,0.27,VWS V14.01,2013-05-04 04:35:00,
2013-05-03 23:40:00,32.3,30.8,30.12,North,5,0.0,4.0,94,0.00,,OVC013,0.27,VWS V14.01,2013-05-04 04:40:00,
2013-05-03 23:45:00,32.3,30.8,30.12,NNE,18,0.0,2.0,94,0.00,,OVC013,0.27,VWS V14.01,2013-05-04 04:45:00,
2013-05-03 23:50:00,32.3,30.8,30.12,NNE,28,0.0,1.0,94,0.00,,OVC013,0.27,VWS V14.01,2013-05-04 04:50:00,
2013-05-03 23:55:00,32.3,30.8,30.12,NNE,30,0.0,2.0,94,0.00,,OVC013,0.27,VWS V14.01,2013-05-04 04:55:00,